Weather History for Mandan, ND

Change the Weather History Date:

Friday, April 4, 2014

  Actual Average (KBIS) Record (KBIS)
Temperature  
Mean Temperature 30 °F 39 °F  
Max Temperature 35 °F 51 °F 77 °F (1991)
Min Temperature 24 °F 26 °F 4 °F (1920)
Degree Days  
Heating Degree Days 36 26  
Month to date heating degree days 108  
Since 1 July heating degree days 7627  
Cooling Degree Days 0 0  
Month to date cooling degree days 0  
Year to date cooling degree days 0  
Moisture  
Dew Point 24 °F    
Average Humidity 80    
Maximum Humidity 93    
Minimum Humidity 69    
Precipitation  
Precipitation 0.00 in 0.04 in 1.24 in (1875)
Month to date precipitation 0.14  
Year to date precipitation 1.95  
Snow  
Snow 0.00 in 0.20 in 3.30 in (1947)
Month to date snowfall 0.9  
Since 1 July snowfall 47.5  
Snow Depth -    
Sea Level Pressure  
Sea Level Pressure 30.02 in    
Wind  
Wind Speed 10 mph (NNE)    
Max Wind Speed 18 mph    
Max Gust Speed 23 mph    
Visibility 10 miles    
Events      
T = Trace of Precipitation, MM = Missing Value Source: NWS Daily Summary

Daily Weather History Graph

Daily Weather History Graph

Search for Another Location

Airport:

Trip Planner

Search our weather history database for the weather conditions in past years. The results will help you decide how hot, cold, wet, or windy it might be!

Date:

Astronomy

Apr. 04, 2014 Rise Set
Actual Time 7:16 AM CDT 8:16 PM CDT
Civil Twilight 6:46 AM CDT 8:47 PM CDT
Nautical Twilight 6:09 AM CDT 9:24 PM CDT
Astronomical Twilight 5:30 AM CDT 10:04 PM CDT
Moon 10:22 AM CDT (4/4) 12:49 AM CDT (4/4)
Length of Visible Light 14h 01m
Length of Day
12h 59m
Waxing Crescent, 25% of the Moon is Illuminated
Apr 4
Waxing Crescent
Apr 7
First Quarter
Apr 15
Full
Apr 22
Last Quarter
Apr 29
New

Hourly Weather History & Observations

Time (CDT) Temp. Windchill Dew Point Humidity Pressure Visibility Wind Dir Wind Speed Gust Speed Precip Events Conditions
12:15 AM 30.2 °F 20.8 °F 24.8 °F 80% 30.07 in 10.0 mi NNW 11.5 mph 18.4 mph N/A   Overcast
12:35 AM 30.2 °F 20.8 °F 23.0 °F 75% 30.07 in 10.0 mi NNW 11.5 mph - N/A   Mostly Cloudy
12:55 AM 30.2 °F 21.3 °F 23.0 °F 75% 30.07 in 10.0 mi NNW 10.4 mph - N/A   Overcast
1:15 AM 30.2 °F 21.3 °F 23.0 °F 75% 30.07 in 10.0 mi North 10.4 mph - N/A   Overcast
1:35 AM 30.2 °F 21.3 °F 23.0 °F 75% 30.07 in 10.0 mi NNW 10.4 mph - N/A   Overcast
1:55 AM 30.2 °F 19.3 °F 23.0 °F 75% 30.07 in 10.0 mi North 15.0 mph - N/A   Overcast
2:15 AM 28.4 °F 18.0 °F 23.0 °F 80% 30.07 in 10.0 mi North 12.7 mph - N/A   Overcast
2:35 AM 28.4 °F 18.0 °F 23.0 °F 80% 30.08 in 10.0 mi North 12.7 mph - N/A   Overcast
2:55 AM 28.4 °F 18.0 °F 23.0 °F 80% 30.07 in 10.0 mi North 12.7 mph - N/A   Overcast
3:15 AM 28.4 °F 18.5 °F 23.0 °F 80% 30.07 in 10.0 mi North 11.5 mph - N/A   Overcast
3:35 AM 28.4 °F 19.1 °F 23.0 °F 80% 30.07 in 10.0 mi North 10.4 mph - N/A   Overcast
3:55 AM 28.4 °F 20.4 °F 23.0 °F 80% 30.07 in 10.0 mi North 8.1 mph - N/A   Overcast
4:15 AM 26.6 °F 17.5 °F 23.0 °F 86% 30.07 in 10.0 mi North 9.2 mph - N/A   Overcast
4:35 AM 26.6 °F 17.5 °F 23.0 °F 86% 30.07 in 10.0 mi North 9.2 mph - N/A   Overcast
4:55 AM 26.6 °F 17.5 °F 23.0 °F 86% 30.07 in 10.0 mi North 9.2 mph - N/A   Overcast
5:15 AM 26.6 °F 16.8 °F 23.0 °F 86% 30.06 in 10.0 mi North 10.4 mph - N/A   Overcast
5:35 AM 26.6 °F 18.2 °F 23.0 °F 86% 30.06 in 10.0 mi North 8.1 mph - N/A   Overcast
5:55 AM 26.6 °F 19.1 °F 23.0 °F 86% 30.06 in 10.0 mi NNW 6.9 mph - N/A   Overcast
6:15 AM 26.6 °F 20.0 °F 23.0 °F 86% 30.07 in 10.0 mi NW 5.8 mph - N/A   Overcast
6:35 AM 26.6 °F 18.2 °F 23.0 °F 86% 30.07 in 10.0 mi NNW 8.1 mph - N/A   Overcast
6:55 AM 26.6 °F 18.2 °F 23.0 °F 86% 30.07 in 10.0 mi North 8.1 mph - N/A   Overcast
7:15 AM 26.6 °F 17.5 °F 21.2 °F 80% 30.08 in 10.0 mi North 9.2 mph - N/A   Overcast
7:35 AM 24.8 °F 16.1 °F 21.2 °F 86% 30.08 in 10.0 mi North 8.1 mph - N/A   Overcast
7:55 AM 24.8 °F 17.9 °F 21.2 °F 86% 30.09 in 10.0 mi NNW 5.8 mph - N/A   Overcast
8:15 AM 24.8 °F 16.1 °F 21.2 °F 86% 30.09 in 10.0 mi North 8.1 mph - N/A   Overcast
8:35 AM 24.8 °F 15.3 °F 21.2 °F 86% 30.09 in 10.0 mi North 9.2 mph - N/A   Overcast
8:55 AM 24.8 °F 16.9 °F 21.2 °F 86% 30.08 in 10.0 mi North 6.9 mph - N/A   Overcast
9:15 AM 26.6 °F 17.5 °F 21.2 °F 80% 30.08 in 10.0 mi NNE 9.2 mph - N/A   Overcast
9:35 AM 26.6 °F 18.2 °F 21.2 °F 80% 30.08 in 10.0 mi NNE 8.1 mph - N/A   Overcast
9:55 AM 26.6 °F 19.1 °F 21.2 °F 80% 30.09 in 10.0 mi NNE 6.9 mph - N/A   Overcast
10:15 AM 26.6 °F 19.1 °F 23.0 °F 86% 30.08 in 10.0 mi North 6.9 mph - N/A   Overcast
10:35 AM 28.4 °F 23.3 °F 23.0 °F 80% 30.09 in 10.0 mi NNW 4.6 mph - N/A   Overcast
10:55 AM 26.6 °F 18.2 °F 23.0 °F 86% 30.08 in 10.0 mi North 8.1 mph - N/A   Overcast
11:15 AM 28.4 °F 24.6 °F 23.0 °F 80% 30.08 in 10.0 mi NNW 3.5 mph - N/A   Overcast
11:35 AM 28.4 °F 24.6 °F 21.2 °F 74% 30.08 in 10.0 mi NNW 3.5 mph - N/A   Overcast
11:55 AM 28.4 °F 23.3 °F 23.0 °F 80% 30.08 in 10.0 mi North 4.6 mph - N/A   Overcast
12:15 PM 28.4 °F - 23.0 °F 80% 30.07 in 10.0 mi Calm Calm - N/A   Overcast
12:35 PM 32.0 °F - 23.0 °F 69% 30.07 in 10.0 mi Calm Calm - N/A   Scattered Clouds
12:55 PM 30.2 °F - 23.0 °F 75% 30.06 in 10.0 mi Calm Calm - N/A   Partly Cloudy
1:15 PM 32.0 °F - 23.0 °F 69% 30.06 in 10.0 mi Calm Calm - N/A   Clear
1:35 PM 32.0 °F 27.5 °F 24.8 °F 75% 30.05 in 10.0 mi WSW 4.6 mph - N/A   Clear
1:55 PM 32.0 °F - 23.0 °F 69% 30.05 in 10.0 mi Calm Calm - N/A   Clear
2:15 PM 32.0 °F 25.6 °F 24.8 °F 75% 30.04 in 10.0 mi SSW 6.9 mph - N/A   Clear
2:35 PM 32.0 °F 26.4 °F 24.8 °F 75% 30.03 in 10.0 mi South 5.8 mph - N/A   Clear
3:15 PM 32.0 °F 26.4 °F 24.8 °F 75% 30.01 in 10.0 mi SW 5.8 mph - N/A   Clear
3:35 PM 33.8 °F 27.7 °F 26.6 °F 75% 30.00 in 10.0 mi South 6.9 mph - N/A   Clear
3:55 PM 33.8 °F 27.0 °F 26.6 °F 75% 30.00 in 10.0 mi SSE 8.1 mph - N/A   Clear
4:15 PM 35.6 °F 29.2 °F 26.6 °F 70% 29.99 in 10.0 mi South 8.1 mph - N/A   Clear
4:35 PM 35.6 °F 29.9 °F 26.6 °F 70% 29.98 in 10.0 mi South 6.9 mph - N/A   Clear
4:55 PM 35.6 °F 28.0 °F 26.6 °F 70% 29.97 in 10.0 mi South 10.4 mph - N/A   Clear
5:15 PM 35.6 °F 27.5 °F 28.4 °F 75% 29.97 in 10.0 mi SSE 11.5 mph - N/A   Clear
5:35 PM 35.6 °F 27.5 °F 28.4 °F 75% 29.96 in 10.0 mi South 11.5 mph - N/A   Clear
5:55 PM 35.6 °F 27.5 °F 28.4 °F 75% 29.96 in 10.0 mi SSE 11.5 mph - N/A   Clear
6:15 PM 35.6 °F 27.1 °F 28.4 °F 75% 29.96 in 10.0 mi SSE 12.7 mph - N/A   Clear
6:35 PM 35.6 °F 26.6 °F 28.4 °F 75% 29.95 in 10.0 mi SSE 13.8 mph 18.4 mph N/A   Clear
6:55 PM 35.6 °F 26.6 °F 26.6 °F 70% 29.94 in 10.0 mi SSE 13.8 mph - N/A   Clear
7:15 PM 35.6 °F 26.2 °F 28.4 °F 75% 29.94 in 10.0 mi SSE 15.0 mph - N/A   Clear
7:35 PM 33.8 °F 25.8 °F 28.4 °F 81% 29.94 in 10.0 mi SSE 10.4 mph - N/A   Clear
7:55 PM 32.0 °F 23.0 °F 26.6 °F 80% 29.93 in 10.0 mi SE 11.5 mph - N/A   Clear
8:15 PM 32.0 °F 23.6 °F 26.6 °F 80% 29.93 in 10.0 mi SE 10.4 mph - N/A   Clear
8:35 PM 32.0 °F 23.0 °F 26.6 °F 80% 29.92 in 10.0 mi SSE 11.5 mph - N/A   Clear
8:55 PM 30.2 °F 21.3 °F 26.6 °F 86% 29.92 in 10.0 mi SSE 10.4 mph - N/A   Clear
9:15 PM 30.2 °F 21.3 °F 26.6 °F 86% 29.92 in 10.0 mi SSE 10.4 mph - N/A   Clear
9:35 PM 32.0 °F 22.5 °F 26.6 °F 80% 29.93 in 10.0 mi SSE 12.7 mph - N/A   Clear
9:55 PM 32.0 °F 21.6 °F 26.6 °F 80% 29.93 in 10.0 mi South 15.0 mph - N/A   Clear
10:15 PM 30.2 °F 18.9 °F 26.6 °F 86% 29.92 in 10.0 mi South 16.1 mph - N/A   Clear
10:35 PM 30.2 °F 18.9 °F 26.6 °F 86% 29.92 in 10.0 mi South 16.1 mph - N/A   Clear
10:55 PM 30.2 °F 18.9 °F 26.6 °F 86% 29.91 in 10.0 mi South 16.1 mph - N/A   Clear
11:15 PM 30.2 °F 18.1 °F 26.6 °F 86% 29.90 in 10.0 mi South 18.4 mph - N/A   Clear
11:35 PM 30.2 °F 19.3 °F 26.6 °F 86% 29.90 in 10.0 mi South 15.0 mph 23.0 mph N/A   Clear
11:55 PM 28.4 °F 17.0 °F 26.6 °F 93% 29.89 in 10.0 mi South 15.0 mph - N/A   Clear